Kahului, HI

2:57 PM HST on June 26, 2017 (GMT -1000)
Kahului

Weather History for PHOG - April, 2013

Change the Weather History Date:

Thursday, April 11, 2013

  Actual Average Record
Temperature  
Mean Temperature 76 °F 74 °F  
Max Temperature 88 °F 82 °F 88 °F (2002)
Min Temperature 64 °F 66 °F 55 °F (1952)
Degree Days  
Heating Degree Days 0 0  
Month to date heating degree days 0 0  
Since 1 July heating degree days 0 0  
Cooling Degree Days 11 9  
Month to date cooling degree days 94 99  
Year to date cooling degree days 760 753  
Growing Degree Days 25 (Base 50)    
Moisture  
Dew Point 68 °F    
Average Humidity 79    
Maximum Humidity 100    
Minimum Humidity 57    
Precipitation  
Precipitation 0.00 in 0.05 in 0.29 in (1970)
Month to date precipitation T 0.71  
Year to date precipitation 6.13 7.92  
Snow  
Snow 0.00 in - - ()
Month to date snowfall 0.0  
Since 1 July snowfall 0.0  
Snow Depth 0.00 in    
Sea Level Pressure  
Sea Level Pressure 30.01 in    
Wind  
Wind Speed 8 mph (East)    
Max Wind Speed 21 mph    
Max Gust Speed 26 mph    
Visibility 10 miles    
Events      
T = Trace of Precipitation, MM = Missing Value Source: NWS Daily Summary

Daily Weather History Graph

Daily Weather History Graph

Search for Another Location

Airport or City:

Trip Planner

Search our weather history database for the weather conditions in past years. The results will help you decide how hot, cold, wet, or windy it might be!

Date:

Astronomy

Apr. 11, 2013 Rise Set
Actual Time 6:09 AM HST 6:43 PM HST
Civil Twilight 5:47 AM HST 7:06 PM HST
Nautical Twilight 5:21 AM HST 7:32 PM HST
Astronomical Twilight 4:54 AM HST 7:59 PM HST
Moon 7:00 AM HST (4/11) 8:13 PM HST (4/11)
Length of Visible Light 13h 18m
Length of Day
12h 33m
New Moon, 2% of the Moon is Illuminated
Apr 11
New Moon
Apr 18
First Quarter
Apr 25
Full
May 2
Last Quarter
May 9
New

Hourly Weather History & Observations

Time (HST) Temp. Heat Index Dew Point Humidity Pressure Visibility Wind Dir Wind Speed Gust Speed Precip Events Conditions
12:54 AM 64.9 °F - 64.9 °F 100% 30.05 in 10.0 mi SSE 6.9 mph - N/A   Clear
1:54 AM 66.0 °F - 64.9 °F 96% 30.03 in 10.0 mi SE 8.1 mph - N/A   Clear
2:54 AM 66.0 °F - 64.0 °F 93% 30.01 in 10.0 mi SE 8.1 mph - N/A   Clear
3:54 AM 64.0 °F - 64.0 °F 100% 30.01 in 10.0 mi South 4.6 mph - N/A   Partly Cloudy
4:54 AM 66.0 °F - 64.0 °F 93% 30.01 in 10.0 mi SE 8.1 mph - N/A   Clear
5:54 AM 69.1 °F - 66.9 °F 93% 30.04 in 10.0 mi Variable 4.6 mph - N/A   Clear
6:54 AM 69.1 °F - 68.0 °F 96% 30.06 in 10.0 mi West 3.5 mph - N/A   Clear
7:54 AM 75.0 °F - 69.1 °F 82% 30.06 in 10.0 mi Calm Calm - N/A   Clear
8:54 AM 78.1 °F - 69.1 °F 74% 30.06 in 10.0 mi Calm Calm - N/A   Partly Cloudy
9:54 AM 82.9 °F 85.8 °F 68.0 °F 60% 30.05 in 10.0 mi North 9.2 mph - N/A   Partly Cloudy
10:54 AM 84.9 °F 88.8 °F 69.1 °F 59% 30.04 in 10.0 mi NE 10.4 mph - N/A   Scattered Clouds
11:54 AM 87.1 °F 92.8 °F 71.1 °F 59% 30.01 in 10.0 mi ENE 15.0 mph 21.9 mph N/A   Scattered Clouds
12:54 PM 84.9 °F 90.1 °F 71.1 °F 63% 29.98 in 10.0 mi East 20.7 mph 25.3 mph N/A   Scattered Clouds
1:54 PM 82.9 °F 87.5 °F 71.1 °F 67% 29.95 in 10.0 mi ENE 15.0 mph 24.2 mph N/A   Scattered Clouds
2:54 PM 86.0 °F 90.7 °F 70.0 °F 59% 29.94 in 10.0 mi East 12.7 mph 18.4 mph N/A   Scattered Clouds
3:54 PM 82.9 °F 86.5 °F 69.1 °F 63% 29.94 in 10.0 mi East 15.0 mph 21.9 mph N/A   Mostly Cloudy
4:54 PM 82.0 °F 85.5 °F 69.1 °F 65% 29.95 in 10.0 mi ENE 11.5 mph 16.1 mph N/A   Scattered Clouds
5:54 PM 81.0 °F 84.1 °F 69.1 °F 67% 29.96 in 10.0 mi East 8.1 mph - N/A   Scattered Clouds
6:54 PM 75.9 °F - 66.9 °F 74% 29.98 in 10.0 mi ENE 5.8 mph - N/A   Scattered Clouds
7:54 PM 73.0 °F - 66.9 °F 81% 29.99 in 10.0 mi SSW 3.5 mph - N/A   Scattered Clouds
8:54 PM 73.9 °F - 68.0 °F 82% 30.01 in 10.0 mi Calm Calm - N/A   Scattered Clouds
9:54 PM 72.0 °F - 68.0 °F 87% 30.01 in 10.0 mi East 5.8 mph - N/A   Scattered Clouds
10:54 PM 73.0 °F - 66.9 °F 81% 30.01 in 10.0 mi ENE 8.1 mph - N/A   Scattered Clouds
11:54 PM 71.1 °F - 68.0 °F 90% 30.00 in 10.0 mi Calm Calm - N/A   Mostly Cloudy